Time,TemperatureF,DewpointF,PressureIn,WindDirection,WindDirectionDegrees,WindSpeedMPH,WindSpeedGustMPH,Humidity,HourlyPrecipIn,Conditions,Clouds,dailyrainin,SoftwareType,DateUTC
2013-02-09 00:00:00,25.3,21.4,30.23,East,87,2.0,3.0,85,0.00,,,0.00,Wunderground v.1.15,2013-02-09 05:00:00,
2013-02-09 00:05:00,25.2,21.3,30.23,SSW,205,2.0,3.0,85,0.00,,,0.00,Wunderground v.1.15,2013-02-09 05:05:00,
2013-02-09 00:10:00,25.2,21.3,30.24,SW,222,2.0,5.0,85,0.00,,,0.00,Wunderground v.1.15,2013-02-09 05:10:00,
2013-02-09 00:15:00,25.2,21.3,30.24,West,262,2.0,5.0,85,0.00,,,0.00,Wunderground v.1.15,2013-02-09 05:15:00,
2013-02-09 00:20:00,25.3,21.4,30.24,NNE,16,3.0,8.0,85,0.00,,,0.00,Wunderground v.1.15,2013-02-09 05:20:00,
2013-02-09 00:25:00,25.3,21.4,30.24,NE,45,3.0,8.0,85,0.00,,,0.00,Wunderground v.1.15,2013-02-09 05:25:00,
2013-02-09 00:35:00,25.4,21.5,30.25,North,7,3.0,7.0,85,0.00,,,0.00,Wunderground v.1.15,2013-02-09 05:35:00,
2013-02-09 00:40:00,25.4,21.5,30.25,NNE,30,3.0,4.0,85,0.00,,,0.00,Wunderground v.1.15,2013-02-09 05:40:00,
2013-02-09 00:45:00,25.3,21.4,30.25,NNE,23,4.0,-999.0,85,0.00,,,0.00,Wunderground v.1.15,2013-02-09 05:45:00,
2013-02-09 00:50:00,25.3,21.4,30.25,West,270,2.0,-999.0,85,0.00,,,0.00,Wunderground v.1.15,2013-02-09 05:50:00,
2013-02-09 00:55:00,25.3,21.4,30.25,NE,45,2.0,-999.0,85,0.00,,,0.00,Wunderground v.1.15,2013-02-09 05:55:00,
2013-02-09 01:00:00,25.3,21.4,30.26,WNW,293,2.0,-999.0,85,0.00,,,0.00,Wunderground v.1.15,2013-02-09 06:00:00,
2013-02-09 01:05:00,25.3,21.4,30.26,West,270,2.0,-999.0,85,0.00,,,0.00,Wunderground v.1.15,2013-02-09 06:05:00,
2013-02-09 01:10:00,25.2,21.3,30.26,WNW,293,3.0,-999.0,85,0.00,,,0.00,Wunderground v.1.15,2013-02-09 06:10:00,
2013-02-09 01:15:00,25.2,21.3,30.25,East,90,2.0,-999.0,85,0.00,,,0.00,Wunderground v.1.15,2013-02-09 06:15:00,
2013-02-09 01:20:00,25.2,21.3,30.25,NNE,23,2.0,-999.0,85,0.00,,,0.00,Wunderground v.1.15,2013-02-09 06:20:00,
2013-02-09 01:25:00,25.2,21.3,30.26,WSW,248,1.0,-999.0,85,0.00,,,0.00,Wunderground v.1.15,2013-02-09 06:25:00,
2013-02-09 01:30:00,25.2,21.3,30.26,West,270,2.0,-999.0,85,0.00,,,0.00,Wunderground v.1.15,2013-02-09 06:30:00,
2013-02-09 01:35:00,25.2,21.3,30.26,West,270,2.0,-999.0,85,0.00,,,0.00,Wunderground v.1.15,2013-02-09 06:35:00,
2013-02-09 01:40:00,25.2,21.3,30.26,WNW,293,1.0,-999.0,85,0.00,,,0.00,Wunderground v.1.15,2013-02-09 06:40:00,
2013-02-09 01:45:00,25.1,21.2,30.26,WNW,293,3.0,-999.0,85,0.00,,,0.00,Wunderground v.1.15,2013-02-09 06:45:00,
2013-02-09 01:50:00,25.1,21.2,30.26,SSE,158,1.0,-999.0,85,0.00,,,0.00,Wunderground v.1.15,2013-02-09 06:50:00,
2013-02-09 01:55:00,25.2,21.0,30.26,NNE,23,3.0,-999.0,84,0.00,,,0.00,Wunderground v.1.15,2013-02-09 06:55:00,
2013-02-09 02:00:00,25.2,21.0,30.26,SW,225,3.0,-999.0,84,0.00,,,0.00,Wunderground v.1.15,2013-02-09 07:00:00,
2013-02-09 02:05:00,25.2,21.3,30.27,West,270,2.0,-999.0,85,0.00,,,0.00,Wunderground v.1.15,2013-02-09 07:05:00,
2013-02-09 02:10:00,25.2,21.3,30.27,WNW,293,1.0,-999.0,85,0.00,,,0.00,Wunderground v.1.15,2013-02-09 07:10:00,
2013-02-09 02:15:00,25.2,21.3,30.27,WNW,293,2.0,-999.0,85,0.00,,,0.00,Wunderground v.1.15,2013-02-09 07:15:00,
2013-02-09 02:20:00,25.2,21.0,30.27,WNW,293,2.0,-999.0,84,0.00,,,0.00,Wunderground v.1.15,2013-02-09 07:20:00,
2013-02-09 02:25:00,25.2,21.0,30.28,WNW,293,2.0,-999.0,84,0.00,,,0.00,Wunderground v.1.15,2013-02-09 07:25:00,
2013-02-09 02:30:00,25.2,21.0,30.27,NNE,23,2.0,-999.0,84,0.00,,,0.00,Wunderground v.1.15,2013-02-09 07:30:00,
2013-02-09 02:35:00,25.2,20.8,30.27,NW,315,2.0,-999.0,83,0.00,,,0.00,Wunderground v.1.15,2013-02-09 07:35:00,
2013-02-09 02:40:00,25.2,20.8,30.28,NE,45,3.0,-999.0,83,0.00,,,0.00,Wunderground v.1.15,2013-02-09 07:40:00,
2013-02-09 02:45:00,25.2,20.8,30.28,NNE,23,2.0,-999.0,83,0.00,,,0.00,Wunderground v.1.15,2013-02-09 07:45:00,
2013-02-09 02:50:00,25.3,20.9,30.28,NNE,23,2.0,-999.0,83,0.00,,,0.00,Wunderground v.1.15,2013-02-09 07:50:00,
2013-02-09 02:55:00,25.2,20.5,30.28,NE,45,2.0,-999.0,82,0.00,,,0.00,Wunderground v.1.15,2013-02-09 07:55:00,
2013-02-09 03:00:00,25.2,20.2,30.28,NNE,23,3.0,-999.0,81,0.00,,,0.00,Wunderground v.1.15,2013-02-09 08:00:00,
2013-02-09 03:05:00,25.3,20.6,30.28,NNE,23,3.0,-999.0,82,0.00,,,0.00,Wunderground v.1.15,2013-02-09 08:05:00,
2013-02-09 03:10:00,25.3,20.3,30.28,NNE,23,3.0,-999.0,81,0.00,,,0.00,Wunderground v.1.15,2013-02-09 08:10:00,
2013-02-09 03:15:00,25.3,20.3,30.28,NE,45,3.0,-999.0,81,0.00,,,0.00,Wunderground v.1.15,2013-02-09 08:15:00,
2013-02-09 03:20:00,25.3,20.0,30.29,NE,45,5.0,-999.0,80,0.00,,,0.00,Wunderground v.1.15,2013-02-09 08:20:00,
2013-02-09 03:25:00,25.3,19.7,30.28,NNE,23,4.0,-999.0,79,0.00,,,0.00,Wunderground v.1.15,2013-02-09 08:25:00,
2013-02-09 03:30:00,25.3,19.7,30.28,NNE,23,4.0,-999.0,79,0.00,,,0.00,Wunderground v.1.15,2013-02-09 08:30:00,
2013-02-09 03:35:00,25.2,19.9,30.29,NNE,23,4.0,-999.0,80,0.00,,,0.00,Wunderground v.1.15,2013-02-09 08:35:00,
2013-02-09 03:40:00,25.1,20.1,30.28,NNE,23,3.0,-999.0,81,0.00,,,0.00,Wunderground v.1.15,2013-02-09 08:40:00,
2013-02-09 03:45:00,25.1,20.4,30.28,NNE,23,2.0,-999.0,82,0.00,,,0.00,Wunderground v.1.15,2013-02-09 08:45:00,
2013-02-09 03:50:00,25.0,20.3,30.28,North,0,1.0,-999.0,82,0.00,,,0.00,Wunderground v.1.15,2013-02-09 08:50:00,
2013-02-09 03:55:00,25.0,20.6,30.28,NNE,23,2.0,-999.0,83,0.00,,,0.00,Wunderground v.1.15,2013-02-09 08:55:00,
2013-02-09 04:00:00,25.0,20.6,30.29,NNE,23,3.0,-999.0,83,0.00,,,0.00,Wunderground v.1.15,2013-02-09 09:00:00,
2013-02-09 04:05:00,25.0,20.3,30.29,North,0,1.0,-999.0,82,0.00,,,0.00,Wunderground v.1.15,2013-02-09 09:05:00,
2013-02-09 04:10:00,25.0,20.3,30.29,NNW,338,3.0,-999.0,82,0.00,,,0.00,Wunderground v.1.15,2013-02-09 09:10:00,
2013-02-09 04:15:00,25.0,20.3,30.29,NNW,338,2.0,-999.0,82,0.00,,,0.00,Wunderground v.1.15,2013-02-09 09:15:00,
2013-02-09 04:20:00,25.0,20.3,30.30,NNE,23,1.0,-999.0,82,0.00,,,0.00,Wunderground v.1.15,2013-02-09 09:20:00,
2013-02-09 04:25:00,25.0,20.3,30.30,NNE,23,2.0,-999.0,82,0.00,,,0.00,Wunderground v.1.15,2013-02-09 09:25:00,
2013-02-09 04:30:00,24.9,20.2,30.30,NNE,23,2.0,-999.0,82,0.00,,,0.00,Wunderground v.1.15,2013-02-09 09:30:00,
2013-02-09 04:35:00,24.9,20.2,30.31,SSW,203,1.0,-999.0,82,0.00,,,0.00,Wunderground v.1.15,2013-02-09 09:35:00,
2013-02-09 04:40:00,24.9,20.2,30.31,North,0,2.0,-999.0,82,0.00,,,0.00,Wunderground v.1.15,2013-02-09 09:40:00,
2013-02-09 04:45:00,24.9,20.2,30.31,ENE,68,2.0,-999.0,82,0.00,,,0.00,Wunderground v.1.15,2013-02-09 09:45:00,
2013-02-09 04:50:00,24.9,20.2,30.31,NNE,23,1.0,-999.0,82,0.00,,,0.00,Wunderground v.1.15,2013-02-09 09:50:00,
2013-02-09 04:55:00,24.9,20.2,30.32,NNE,23,3.0,-999.0,82,0.00,,,0.00,Wunderground v.1.15,2013-02-09 09:55:00,
2013-02-09 05:00:00,24.9,20.2,30.32,NNE,23,2.0,-999.0,82,0.00,,,0.00,Wunderground v.1.15,2013-02-09 10:00:00,
2013-02-09 05:05:00,24.9,20.2,30.32,WNW,293,1.0,-999.0,82,0.00,,,0.00,Wunderground v.1.15,2013-02-09 10:05:00,
2013-02-09 05:10:00,24.9,20.2,30.32,NE,45,1.0,-999.0,82,0.00,,,0.00,Wunderground v.1.15,2013-02-09 10:10:00,
2013-02-09 05:15:00,24.9,20.2,30.32,North,0,1.0,-999.0,82,0.00,,,0.00,Wunderground v.1.15,2013-02-09 10:15:00,
2013-02-09 05:20:00,24.9,20.2,30.32,NNE,23,2.0,-999.0,82,0.00,,,0.00,Wunderground v.1.15,2013-02-09 10:20:00,
2013-02-09 05:25:00,24.9,20.2,30.33,SW,225,1.0,-999.0,82,0.00,,,0.00,Wunderground v.1.15,2013-02-09 10:25:00,
2013-02-09 05:30:00,24.9,20.2,30.33,NNE,23,1.0,-999.0,82,0.00,,,0.00,Wunderground v.1.15,2013-02-09 10:30:00,
2013-02-09 05:35:00,24.9,20.2,30.33,North,0,2.0,-999.0,82,0.00,,,0.00,Wunderground v.1.15,2013-02-09 10:35:00,
2013-02-09 05:40:00,24.8,20.1,30.33,West,270,2.0,-999.0,82,0.00,,,0.00,Wunderground v.1.15,2013-02-09 10:40:00,
2013-02-09 05:45:00,24.8,20.1,30.34,NNE,23,3.0,-999.0,82,0.00,,,0.00,Wunderground v.1.15,2013-02-09 10:45:00,
2013-02-09 05:50:00,24.8,19.8,30.34,NNE,23,2.0,-999.0,81,0.00,,,0.00,Wunderground v.1.15,2013-02-09 10:50:00,
2013-02-09 05:55:00,24.8,19.8,30.34,SW,225,2.0,-999.0,81,0.00,,,0.00,Wunderground v.1.15,2013-02-09 10:55:00,
2013-02-09 06:00:00,24.8,19.8,30.34,NE,45,3.0,-999.0,81,0.00,,,0.00,Wunderground v.1.15,2013-02-09 11:00:00,
2013-02-09 06:05:00,24.8,19.5,30.34,NNE,23,3.0,-999.0,80,0.00,,,0.00,Wunderground v.1.15,2013-02-09 11:05:00,
2013-02-09 06:10:00,24.8,19.5,30.34,NE,45,2.0,-999.0,80,0.00,,,0.00,Wunderground v.1.15,2013-02-09 11:10:00,
2013-02-09 06:15:00,24.8,19.5,30.34,NNE,23,1.0,-999.0,80,0.00,,,0.00,Wunderground v.1.15,2013-02-09 11:15:00,
2013-02-09 06:20:00,24.7,19.4,30.34,NNE,23,3.0,-999.0,80,0.00,,,0.00,Wunderground v.1.15,2013-02-09 11:20:00,
2013-02-09 06:25:00,24.7,19.4,30.34,NE,45,2.0,-999.0,80,0.00,,,0.00,Wunderground v.1.15,2013-02-09 11:25:00,
2013-02-09 06:30:00,24.7,19.7,30.34,NE,45,2.0,-999.0,81,0.00,,,0.00,Wunderground v.1.15,2013-02-09 11:30:00,
2013-02-09 06:35:00,24.7,19.7,30.34,SW,225,1.0,-999.0,81,0.00,,,0.00,Wunderground v.1.15,2013-02-09 11:35:00,
2013-02-09 06:40:00,24.6,19.3,30.34,NE,45,3.0,-999.0,80,0.00,,,0.00,Wunderground v.1.15,2013-02-09 11:40:00,
2013-02-09 06:45:00,24.6,19.3,30.35,NNE,23,3.0,-999.0,80,0.00,,,0.00,Wunderground v.1.15,2013-02-09 11:45:00,
2013-02-09 06:50:00,24.6,19.6,30.35,NNE,23,2.0,-999.0,81,0.00,,,0.00,Wunderground v.1.15,2013-02-09 11:50:00,
2013-02-09 06:55:00,24.6,19.6,30.35,NNE,23,1.0,-999.0,81,0.00,,,0.00,Wunderground v.1.15,2013-02-09 11:55:00,
2013-02-09 07:00:00,24.5,19.8,30.35,NNE,23,1.0,-999.0,82,0.00,,,0.00,Wunderground v.1.15,2013-02-09 12:00:00,
2013-02-09 07:05:00,24.5,19.8,30.35,NNE,23,1.0,-999.0,82,0.00,,,0.00,Wunderground v.1.15,2013-02-09 12:05:00,
2013-02-09 07:10:00,24.4,19.7,30.35,NE,45,1.0,-999.0,82,0.00,,,0.00,Wunderground v.1.15,2013-02-09 12:10:00,
2013-02-09 07:15:00,24.4,19.7,30.35,ENE,68,2.0,-999.0,82,0.00,,,0.00,Wunderground v.1.15,2013-02-09 12:15:00,
2013-02-09 07:20:00,24.4,19.7,30.35,NNE,23,2.0,-999.0,82,0.00,,,0.00,Wunderground v.1.15,2013-02-09 12:20:00,
2013-02-09 07:25:00,24.4,19.7,30.35,NE,45,1.0,-999.0,82,0.00,,,0.00,Wunderground v.1.15,2013-02-09 12:25:00,
2013-02-09 07:30:00,24.4,19.7,30.36,North,0,1.0,-999.0,82,0.00,,,0.00,Wunderground v.1.15,2013-02-09 12:30:00,
2013-02-09 07:35:00,24.4,19.7,30.36,NNE,23,2.0,-999.0,82,0.00,,,0.00,Wunderground v.1.15,2013-02-09 12:35:00,
2013-02-09 07:40:00,24.4,19.4,30.37,NNE,23,1.0,-999.0,81,0.00,,,0.00,Wunderground v.1.15,2013-02-09 12:40:00,
2013-02-09 07:45:00,24.4,19.1,30.37,SW,225,2.0,-999.0,80,0.00,,,0.00,Wunderground v.1.15,2013-02-09 12:45:00,
2013-02-09 07:50:00,24.4,19.1,30.37,NE,45,4.0,-999.0,80,0.00,,,0.00,Wunderground v.1.15,2013-02-09 12:50:00,
2013-02-09 07:55:00,24.4,18.8,30.38,NNE,23,3.0,-999.0,79,0.00,,,0.00,Wunderground v.1.15,2013-02-09 12:55:00,
2013-02-09 08:00:00,24.4,18.8,30.38,NNE,23,3.0,-999.0,79,0.00,,,0.00,Wunderground v.1.15,2013-02-09 13:00:00,
2013-02-09 08:05:00,24.5,19.2,30.38,NNE,23,2.0,-999.0,80,0.00,,,0.00,Wunderground v.1.15,2013-02-09 13:05:00,
2013-02-09 08:10:00,24.5,18.9,30.38,North,0,2.0,-999.0,79,0.00,,,0.00,Wunderground v.1.15,2013-02-09 13:10:00,
2013-02-09 08:15:00,24.5,18.9,30.38,NNE,23,2.0,-999.0,79,0.00,,,0.00,Wunderground v.1.15,2013-02-09 13:15:00,
2013-02-09 08:20:00,24.6,19.0,30.38,NNE,23,3.0,-999.0,79,0.00,,,0.00,Wunderground v.1.15,2013-02-09 13:20:00,
2013-02-09 08:30:00,24.7,19.1,30.38,NNW,336,3.0,4.0,79,0.00,,,0.00,Wunderground v.1.15,2013-02-09 13:30:00,
2013-02-09 08:40:00,24.6,19.0,30.39,WNW,300,3.0,3.0,79,0.00,,,0.00,Wunderground v.1.15,2013-02-09 13:40:00,
2013-02-09 08:45:00,24.7,19.1,30.39,North,2,2.0,3.0,79,0.00,,,0.00,Wunderground v.1.15,2013-02-09 13:45:00,
2013-02-09 08:50:00,24.8,19.2,30.39,NE,34,2.0,4.0,79,0.00,,,0.00,Wunderground v.1.15,2013-02-09 13:50:00,
2013-02-09 09:00:00,25.1,19.5,30.40,West,273,2.0,2.0,79,0.00,,,0.00,Wunderground v.1.15,2013-02-09 14:00:00,
2013-02-09 09:10:00,25.3,19.4,30.40,WSW,253,2.0,2.0,78,0.00,,,0.00,Wunderground v.1.15,2013-02-09 14:10:00,
2013-02-09 09:15:00,25.5,19.6,30.40,WSW,245,2.0,2.0,78,0.00,,,0.00,Wunderground v.1.15,2013-02-09 14:15:00,
2013-02-09 09:20:00,25.6,19.7,30.40,West,269,1.0,4.0,78,0.00,,,0.00,Wunderground v.1.15,2013-02-09 14:20:00,
2013-02-09 09:25:00,25.5,19.6,30.40,WNW,287,1.0,4.0,78,0.00,,,0.00,Wunderground v.1.15,2013-02-09 14:25:00,
2013-02-09 09:30:00,25.8,19.9,30.40,NNE,29,1.0,3.0,78,0.00,,,0.00,Wunderground v.1.15,2013-02-09 14:30:00,
2013-02-09 09:35:00,25.7,19.8,30.40,NNE,18,2.0,3.0,78,0.00,,,0.00,Wunderground v.1.15,2013-02-09 14:35:00,
2013-02-09 09:45:00,25.9,19.7,30.40,West,274,1.0,5.0,77,0.00,,,0.00,Wunderground v.1.15,2013-02-09 14:45:00,
2013-02-09 09:50:00,26.1,19.9,30.41,NNE,18,2.0,5.0,77,0.00,,,0.00,Wunderground v.1.15,2013-02-09 14:50:00,
2013-02-09 09:55:00,26.2,20.0,30.41,NNW,343,1.0,5.0,77,0.00,,,0.00,Wunderground v.1.15,2013-02-09 14:55:00,
2013-02-09 10:00:00,26.5,20.0,30.41,NW,309,1.0,1.0,76,0.00,,,0.00,Wunderground v.1.15,2013-02-09 15:00:00,
2013-02-09 10:10:00,26.9,20.0,30.41,SSW,208,1.0,1.0,75,0.00,,,0.00,Wunderground v.1.15,2013-02-09 15:10:00,
2013-02-09 10:20:00,27.0,20.1,30.40,SW,225,1.0,1.0,75,0.00,,,0.00,Wunderground v.1.15,2013-02-09 15:20:00,
2013-02-09 10:25:00,27.0,20.4,30.40,NW,314,1.0,1.0,76,0.00,,,0.00,Wunderground v.1.15,2013-02-09 15:25:00,
2013-02-09 10:30:00,27.3,20.7,30.40,West,281,1.0,2.0,76,0.00,,,0.00,Wunderground v.1.15,2013-02-09 15:30:00,
2013-02-09 10:35:00,27.4,20.8,30.41,NE,51,1.0,2.0,76,0.00,,,0.00,Wunderground v.1.15,2013-02-09 15:35:00,
2013-02-09 10:40:00,27.3,20.1,30.40,NNE,18,2.0,4.0,74,0.00,,,0.00,Wunderground v.1.15,2013-02-09 15:40:00,
2013-02-09 10:45:00,27.0,19.5,30.40,NE,42,3.0,4.0,73,0.00,,,0.00,Wunderground v.1.15,2013-02-09 15:45:00,
2013-02-09 10:55:00,27.6,20.1,30.40,NNE,24,1.0,5.0,73,0.00,,,0.00,Wunderground v.1.15,2013-02-09 15:55:00,
2013-02-09 11:00:00,27.6,20.1,30.40,NNE,16,2.0,5.0,73,0.00,,,0.00,Wunderground v.1.15,2013-02-09 16:00:00,
2013-02-09 11:10:00,27.2,19.7,30.40,NE,42,4.0,4.0,73,0.00,,,0.00,Wunderground v.1.15,2013-02-09 16:10:00,
2013-02-09 11:15:00,27.4,19.9,30.40,NNE,23,2.0,4.0,73,0.00,,,0.00,Wunderground v.1.15,2013-02-09 16:15:00,
2013-02-09 11:20:00,28.0,20.5,30.40,NE,39,3.0,3.0,73,0.00,,,0.00,Wunderground v.1.15,2013-02-09 16:20:00,
2013-02-09 11:30:00,27.8,19.6,30.40,NW,316,3.0,3.0,71,0.00,,,0.00,Wunderground v.1.15,2013-02-09 16:30:00,
2013-02-09 11:35:00,28.5,20.9,30.40,West,274,1.0,3.0,73,0.00,,,0.00,Wunderground v.1.15,2013-02-09 16:35:00,
2013-02-09 11:40:00,28.8,20.6,30.40,NNE,15,1.0,2.0,71,0.00,,,0.00,Wunderground v.1.15,2013-02-09 16:40:00,
2013-02-09 11:45:00,28.4,20.2,30.39,West,259,1.0,2.0,71,0.00,,,0.00,Wunderground v.1.15,2013-02-09 16:45:00,
2013-02-09 11:50:00,28.6,20.7,30.39,SW,222,1.0,1.0,72,0.00,,,0.00,Wunderground v.1.15,2013-02-09 16:50:00,
2013-02-09 11:55:00,28.8,20.6,30.39,SSW,196,1.0,1.0,71,0.00,,,0.00,Wunderground v.1.15,2013-02-09 16:55:00,
2013-02-09 12:00:00,29.7,21.8,30.39,SW,228,1.0,3.0,72,0.00,,,0.00,Wunderground v.1.15,2013-02-09 17:00:00,
2013-02-09 12:10:00,29.8,20.9,30.39,West,278,3.0,3.0,69,0.00,,,0.00,Wunderground v.1.15,2013-02-09 17:10:00,
2013-02-09 12:15:00,29.4,20.8,30.38,SW,217,3.0,3.0,70,0.00,,,0.00,Wunderground v.1.15,2013-02-09 17:15:00,
2013-02-09 12:20:00,29.0,20.4,30.38,SW,228,2.0,2.0,70,0.00,,,0.00,Wunderground v.1.15,2013-02-09 17:20:00,
2013-02-09 12:25:00,28.8,20.2,30.38,SW,221,3.0,3.0,70,0.00,,,0.00,Wunderground v.1.15,2013-02-09 17:25:00,
2013-02-09 12:30:00,28.9,20.7,30.38,WNW,288,2.0,2.0,71,0.00,,,0.00,Wunderground v.1.15,2013-02-09 17:30:00,
2013-02-09 12:35:00,29.3,21.1,30.37,NW,308,1.0,2.0,71,0.00,,,0.00,Wunderground v.1.15,2013-02-09 17:35:00,
2013-02-09 12:45:00,31.0,21.3,30.37,SSE,162,1.0,2.0,67,0.00,,,0.00,Wunderground v.1.15,2013-02-09 17:45:00,
2013-02-09 12:55:00,31.7,20.9,30.37,WSW,246,2.0,2.0,64,0.00,,,0.00,Wunderground v.1.15,2013-02-09 17:55:00,
2013-02-09 13:05:00,30.9,20.9,30.37,SE,146,2.0,3.0,66,0.00,,,0.00,Wunderground v.1.15,2013-02-09 18:05:00,
2013-02-09 13:10:00,31.0,21.3,30.38,South,181,2.0,2.0,67,0.00,,,0.00,Wunderground v.1.15,2013-02-09 18:10:00,
2013-02-09 13:15:00,31.0,21.3,30.37,West,267,2.0,2.0,67,0.00,,,0.00,Wunderground v.1.15,2013-02-09 18:15:00,
2013-02-09 13:20:00,31.1,22.1,30.37,SE,143,2.0,2.0,69,0.00,,,0.00,Wunderground v.1.15,2013-02-09 18:20:00,
2013-02-09 13:30:00,30.9,20.9,30.36,NW,314,3.0,3.0,66,0.00,,,0.00,Wunderground v.1.15,2013-02-09 18:30:00,
2013-02-09 13:35:00,30.6,20.9,30.36,West,273,3.0,3.0,67,0.00,,,0.00,Wunderground v.1.15,2013-02-09 18:35:00,
2013-02-09 13:40:00,30.6,20.9,30.36,West,276,3.0,3.0,67,0.00,,,0.00,Wunderground v.1.15,2013-02-09 18:40:00,
2013-02-09 13:45:00,31.2,21.5,30.36,WSW,256,2.0,3.0,67,0.00,,,0.00,Wunderground v.1.15,2013-02-09 18:45:00,
2013-02-09 13:50:00,31.3,21.3,30.36,NW,314,2.0,2.0,66,0.00,,,0.00,Wunderground v.1.15,2013-02-09 18:50:00,
2013-02-09 13:55:00,31.7,22.0,30.36,SE,138,2.0,2.0,67,0.00,,,0.00,Wunderground v.1.15,2013-02-09 18:55:00,
2013-02-09 14:00:00,32.3,21.8,30.36,SW,219,1.0,1.0,65,0.00,,,0.00,Wunderground v.1.15,2013-02-09 19:00:00,
2013-02-09 14:10:00,32.0,21.9,30.36,South,188,3.0,6.0,66,0.00,,,0.00,Wunderground v.1.15,2013-02-09 19:10:00,
2013-02-09 14:15:00,32.1,21.7,30.36,WSW,243,4.0,6.0,65,0.00,,,0.00,Wunderground v.1.15,2013-02-09 19:15:00,
2013-02-09 14:25:00,32.0,21.6,30.36,SW,224,3.0,4.0,65,0.00,,,0.00,Wunderground v.1.15,2013-02-09 19:25:00,
2013-02-09 14:30:00,32.2,22.5,30.36,West,270,3.0,4.0,67,0.00,,,0.00,Wunderground v.1.15,2013-02-09 19:30:00,
2013-02-09 14:40:00,32.6,22.1,30.36,WSW,246,3.0,3.0,65,0.00,,,0.00,Wunderground v.1.15,2013-02-09 19:40:00,
2013-02-09 14:45:00,33.2,22.3,30.36,SSW,198,2.0,3.0,64,0.00,,,0.00,Wunderground v.1.15,2013-02-09 19:45:00,
2013-02-09 14:55:00,32.8,21.6,30.36,NNW,330,3.0,3.0,63,0.00,,,0.00,Wunderground v.1.15,2013-02-09 19:55:00,
2013-02-09 15:00:00,32.4,21.9,30.35,SW,214,2.0,2.0,65,0.00,,,0.00,Wunderground v.1.15,2013-02-09 20:00:00,
2013-02-09 15:10:00,33.8,22.9,30.35,ENE,71,1.0,1.0,64,0.00,,,0.00,Wunderground v.1.15,2013-02-09 20:10:00,
2013-02-09 15:15:00,34.1,21.7,30.35,WNW,302,1.0,2.0,60,0.00,,,0.00,Wunderground v.1.15,2013-02-09 20:15:00,
2013-02-09 15:25:00,35.4,23.3,30.35,SSE,167,1.0,1.0,61,0.00,,,0.00,Wunderground v.1.15,2013-02-09 20:25:00,
2013-02-09 15:30:00,36.0,22.6,30.35,SSE,157,1.0,1.0,58,0.00,,,0.00,Wunderground v.1.15,2013-02-09 20:30:00,
2013-02-09 15:35:00,36.4,22.6,30.35,SSW,198,1.0,1.0,57,0.00,,,0.00,Wunderground v.1.15,2013-02-09 20:35:00,
2013-02-09 15:45:00,36.0,22.6,30.35,SSW,196,2.0,2.0,58,0.00,,,0.00,Wunderground v.1.15,2013-02-09 20:45:00,
2013-02-09 15:50:00,36.0,22.6,30.35,SSW,211,1.0,2.0,58,0.00,,,0.00,Wunderground v.1.15,2013-02-09 20:50:00,
2013-02-09 16:00:00,34.8,21.5,30.35,WSW,248,2.0,3.0,58,0.00,,,0.00,Wunderground v.1.15,2013-02-09 21:00:00,
2013-02-09 16:10:00,34.4,21.5,30.35,SSW,193,2.0,2.0,59,0.00,,,0.00,Wunderground v.1.15,2013-02-09 21:10:00,
2013-02-09 16:15:00,34.5,21.2,30.35,SSW,196,2.0,3.0,58,0.00,,,0.00,Wunderground v.1.15,2013-02-09 21:15:00,
2013-02-09 16:25:00,34.7,21.8,30.35,West,277,1.0,3.0,59,0.00,,,0.00,Wunderground v.1.15,2013-02-09 21:25:00,
2013-02-09 16:30:00,35.1,21.4,30.35,SW,228,1.0,3.0,57,0.00,,,0.00,Wunderground v.1.15,2013-02-09 21:30:00,
2013-02-09 16:35:00,34.6,21.3,30.35,West,270,2.0,3.0,58,0.00,,,0.00,Wunderground v.1.15,2013-02-09 21:35:00,
2013-02-09 16:45:00,34.1,22.0,30.35,WSW,255,2.0,2.0,61,0.00,,,0.00,Wunderground v.1.15,2013-02-09 21:45:00,
2013-02-09 16:50:00,34.5,22.0,30.35,South,177,2.0,2.0,60,0.00,,,0.00,Wunderground v.1.15,2013-02-09 21:50:00,
2013-02-09 16:55:00,34.9,22.4,30.34,SSE,150,2.0,3.0,60,0.00,,,0.00,Wunderground v.1.15,2013-02-09 21:55:00,
2013-02-09 17:00:00,34.9,22.0,30.34,SSW,211,2.0,2.0,59,0.00,,,0.00,Wunderground v.1.15,2013-02-09 22:00:00,
2013-02-09 17:10:00,34.3,21.8,30.34,SSW,203,1.0,2.0,60,0.00,,,0.00,Wunderground v.1.15,2013-02-09 22:10:00,
2013-02-09 17:15:00,33.6,21.6,30.34,SSW,205,2.0,2.0,61,0.00,,,0.00,Wunderground v.1.15,2013-02-09 22:15:00,
2013-02-09 17:20:00,32.8,21.2,30.34,SSW,207,1.0,1.0,62,0.00,,,0.00,Wunderground v.1.15,2013-02-09 22:20:00,
2013-02-09 17:25:00,31.9,20.7,30.33,SSW,207,0.0,1.0,63,0.00,,,0.00,Wunderground v.1.15,2013-02-09 22:25:00,
2013-02-09 17:30:00,30.9,20.9,30.33,SSW,198,0.0,0.0,66,0.00,,,0.00,Wunderground v.1.15,2013-02-09 22:30:00,
2013-02-09 17:35:00,30.0,20.7,30.34,SSW,202,0.0,0.0,68,0.00,,,0.00,Wunderground v.1.15,2013-02-09 22:35:00,
2013-02-09 17:45:00,28.7,20.1,30.33,SSW,201,0.0,0.0,70,0.00,,,0.00,Wunderground v.1.15,2013-02-09 22:45:00,
2013-02-09 17:50:00,28.1,20.6,30.33,SSW,201,0.0,0.0,73,0.00,,,0.00,Wunderground v.1.15,2013-02-09 22:50:00,
2013-02-09 17:55:00,27.6,20.7,30.33,SSW,201,0.0,0.0,75,0.00,,,0.00,Wunderground v.1.15,2013-02-09 22:55:00,
2013-02-09 18:00:00,27.2,20.3,30.33,SSW,201,0.0,0.0,75,0.00,,,0.00,Wunderground v.1.15,2013-02-09 23:00:00,
2013-02-09 18:10:00,26.4,20.2,30.33,SSW,201,0.0,1.0,77,0.00,,,0.00,Wunderground v.1.15,2013-02-09 23:10:00,
2013-02-09 18:15:00,26.1,20.2,30.34,SSW,201,0.0,1.0,78,0.00,,,0.00,Wunderground v.1.15,2013-02-09 23:15:00,
2013-02-09 18:20:00,25.8,20.2,30.34,SSW,201,0.0,0.0,79,0.00,,,0.00,Wunderground v.1.15,2013-02-09 23:20:00,
2013-02-09 18:25:00,25.4,20.1,30.34,SSW,201,0.0,0.0,80,0.00,,,0.00,Wunderground v.1.15,2013-02-09 23:25:00,
2013-02-09 18:30:00,25.1,20.1,30.34,SSW,201,0.0,0.0,81,0.00,,,0.00,Wunderground v.1.15,2013-02-09 23:30:00,
2013-02-09 18:35:00,24.7,19.7,30.34,SSW,201,0.0,0.0,81,0.00,,,0.00,Wunderground v.1.15,2013-02-09 23:35:00,
2013-02-09 18:40:00,24.4,19.4,30.34,SSW,201,0.0,0.0,81,0.00,,,0.00,Wunderground v.1.15,2013-02-09 23:40:00,
2013-02-09 18:45:00,24.1,19.4,30.35,SSW,201,0.0,0.0,82,0.00,,,0.00,Wunderground v.1.15,2013-02-09 23:45:00,
2013-02-09 18:55:00,23.8,19.4,30.35,SSW,201,0.0,0.0,83,0.00,,,0.00,Wunderground v.1.15,2013-02-09 23:55:00,
2013-02-09 19:00:00,23.5,19.1,30.34,SSW,201,0.0,0.0,83,0.00,,,0.00,Wunderground v.1.15,2013-02-10 00:00:00,
2013-02-09 19:10:00,23.0,18.9,30.34,SSW,200,0.0,0.0,84,0.00,,,0.00,Wunderground v.1.15,2013-02-10 00:10:00,
2013-02-09 19:15:00,22.9,19.1,30.34,SSW,200,0.0,0.0,85,0.00,,,0.00,Wunderground v.1.15,2013-02-10 00:15:00,
2013-02-09 19:20:00,22.7,18.9,30.34,SSW,200,0.0,0.0,85,0.00,,,0.00,Wunderground v.1.15,2013-02-10 00:20:00,
2013-02-09 19:30:00,22.3,18.5,30.34,SSW,200,0.0,0.0,85,0.00,,,0.00,Wunderground v.1.15,2013-02-10 00:30:00,
2013-02-09 19:35:00,22.1,18.3,30.35,SSW,200,0.0,0.0,85,0.00,,,0.00,Wunderground v.1.15,2013-02-10 00:35:00,
2013-02-09 19:40:00,21.9,18.1,30.35,SSW,200,0.0,0.0,85,0.00,,,0.00,Wunderground v.1.15,2013-02-10 00:40:00,
2013-02-09 19:45:00,21.8,18.0,30.35,SSW,200,0.0,0.0,85,0.00,,,0.00,Wunderground v.1.15,2013-02-10 00:45:00,
2013-02-09 19:50:00,21.7,18.2,30.35,SSW,200,0.0,0.0,86,0.00,,,0.00,Wunderground v.1.15,2013-02-10 00:50:00,
2013-02-09 19:55:00,21.5,18.0,30.35,SSW,200,0.0,0.0,86,0.00,,,0.00,Wunderground v.1.15,2013-02-10 00:55:00,
2013-02-09 20:05:00,21.3,17.8,30.35,SSW,200,0.0,0.0,86,0.00,,,0.00,Wunderground v.1.15,2013-02-10 01:05:00,
2013-02-09 20:15:00,20.9,17.4,30.35,SSW,200,0.0,0.0,86,0.00,,,0.00,Wunderground v.1.15,2013-02-10 01:15:00,
2013-02-09 20:20:00,20.6,17.1,30.35,SSW,200,0.0,0.0,86,0.00,,,0.00,Wunderground v.1.15,2013-02-10 01:20:00,
2013-02-09 20:25:00,20.5,17.2,30.35,SSW,200,0.0,0.0,87,0.00,,,0.00,Wunderground v.1.15,2013-02-10 01:25:00,
2013-02-09 20:30:00,20.4,17.1,30.35,SSW,200,0.0,0.0,87,0.00,,,0.00,Wunderground v.1.15,2013-02-10 01:30:00,
2013-02-09 20:35:00,20.4,17.1,30.35,SSW,200,0.0,0.0,87,0.00,,,0.00,Wunderground v.1.15,2013-02-10 01:35:00,
2013-02-09 20:45:00,20.3,17.3,30.36,SSW,199,0.0,0.0,88,0.00,,,0.00,Wunderground v.1.15,2013-02-10 01:45:00,
2013-02-09 20:50:00,20.3,17.3,30.35,SSW,200,0.0,0.0,88,0.00,,,0.00,Wunderground v.1.15,2013-02-10 01:50:00,
2013-02-09 20:55:00,20.2,17.2,30.35,SSW,200,0.0,0.0,88,0.00,,,0.00,Wunderground v.1.15,2013-02-10 01:55:00,
2013-02-09 21:00:00,20.2,17.2,30.36,SSW,200,0.0,0.0,88,0.00,,,0.00,Wunderground v.1.15,2013-02-10 02:00:00,
2013-02-09 21:10:00,20.0,17.0,30.35,SSW,200,0.0,0.0,88,0.00,,,0.00,Wunderground v.1.15,2013-02-10 02:10:00,
2013-02-09 21:25:00,19.2,16.2,30.35,SSW,200,0.0,0.0,88,0.00,,,0.00,Wunderground v.1.15,2013-02-10 02:25:00,
2013-02-09 21:30:00,19.0,16.0,30.35,SSW,200,0.0,0.0,88,0.00,,,0.00,Wunderground v.1.15,2013-02-10 02:30:00,
2013-02-09 21:35:00,18.9,16.2,30.35,SSW,200,0.0,0.0,89,0.00,,,0.00,Wunderground v.1.15,2013-02-10 02:35:00,
2013-02-09 21:40:00,18.7,16.0,30.35,SSW,200,0.0,0.0,89,0.00,,,0.00,Wunderground v.1.15,2013-02-10 02:40:00,
2013-02-09 21:45:00,18.6,15.9,30.35,SSW,200,0.0,0.0,89,0.00,,,0.00,Wunderground v.1.15,2013-02-10 02:45:00,
2013-02-09 21:55:00,18.1,15.4,30.35,SSW,200,0.0,0.0,89,0.00,,,0.00,Wunderground v.1.15,2013-02-10 02:55:00,
2013-02-09 22:00:00,18.1,15.7,30.35,SSW,200,0.0,0.0,90,0.00,,,0.00,Wunderground v.1.15,2013-02-10 03:00:00,
2013-02-09 22:10:00,18.1,15.7,30.34,SSW,200,0.0,0.0,90,0.00,,,0.00,Wunderground v.1.15,2013-02-10 03:10:00,
2013-02-09 22:15:00,18.0,15.6,30.34,SSW,200,0.0,0.0,90,0.00,,,0.00,Wunderground v.1.15,2013-02-10 03:15:00,
2013-02-09 22:25:00,17.8,15.4,30.34,SSW,200,0.0,0.0,90,0.00,,,0.00,Wunderground v.1.15,2013-02-10 03:25:00,
2013-02-09 22:30:00,17.6,15.2,30.33,SSW,200,0.0,0.0,90,0.00,,,0.00,Wunderground v.1.15,2013-02-10 03:30:00,
2013-02-09 22:35:00,17.6,15.2,30.33,SSW,200,0.0,0.0,90,0.00,,,0.00,Wunderground v.1.15,2013-02-10 03:35:00,
2013-02-09 22:40:00,17.3,14.9,30.33,SSW,200,0.0,0.0,90,0.00,,,0.00,Wunderground v.1.15,2013-02-10 03:40:00,
2013-02-09 22:45:00,16.7,14.3,30.32,SSW,200,0.0,0.0,90,0.00,,,0.00,Wunderground v.1.15,2013-02-10 03:45:00,
2013-02-09 22:50:00,16.6,14.2,30.32,SSW,200,0.0,0.0,90,0.00,,,0.00,Wunderground v.1.15,2013-02-10 03:50:00,
2013-02-09 23:00:00,16.4,14.2,30.31,SSW,200,0.0,0.0,91,0.00,,,0.00,Wunderground v.1.15,2013-02-10 04:00:00,
2013-02-09 23:10:00,16.4,14.2,30.32,SSW,200,0.0,0.0,91,0.00,,,0.00,Wunderground v.1.15,2013-02-10 04:10:00,
2013-02-09 23:15:00,16.5,14.3,30.31,SSW,200,0.0,0.0,91,0.00,,,0.00,Wunderground v.1.15,2013-02-10 04:15:00,
2013-02-09 23:20:00,16.6,14.7,30.31,SSW,200,0.0,0.0,92,0.00,,,0.00,Wunderground v.1.15,2013-02-10 04:20:00,
2013-02-09 23:25:00,16.6,14.7,30.31,SSW,200,0.0,0.0,92,0.00,,,0.00,Wunderground v.1.15,2013-02-10 04:25:00,
2013-02-09 23:35:00,16.6,14.7,30.31,SSW,200,0.0,0.0,92,0.00,,,0.00,Wunderground v.1.15,2013-02-10 04:35:00,
2013-02-09 23:45:00,16.4,14.5,30.31,SSW,200,0.0,0.0,92,0.00,,,0.00,Wunderground v.1.15,2013-02-10 04:45:00,
2013-02-09 23:50:00,16.3,14.4,30.31,SSW,200,0.0,0.0,92,0.00,,,0.00,Wunderground v.1.15,2013-02-10 04:50:00,
2013-02-09 23:55:00,16.1,14.2,30.31,SSW,200,0.0,0.0,92,0.00,,,0.00,Wunderground v.1.15,2013-02-10 04:55:00,